Fort Eustis, VA

6:51 AM EDT on August 24, 2017 (GMT -0400)
Felker Army Air Field

Weather History for KFAF - December, 2012

Change the Weather History Date:

Tuesday, December 18, 2012

  Actual Average Record
Temperature  
Mean Temperature 54 °F -  
Max Temperature 61 °F 50 °F 69 °F (2006)
Min Temperature 46 °F 34 °F 24 °F (2010)
Degree Days  
Heating Degree Days 11    
Growing Degree Days 4 (Base 50)    
Moisture  
Dew Point 49 °F    
Average Humidity 77    
Maximum Humidity 100    
Minimum Humidity 53    
Precipitation  
Precipitation 0.00 in - - ()
Sea Level Pressure  
Sea Level Pressure 29.66 in    
Wind  
Wind Speed 7 mph (WSW)    
Max Wind Speed 12 mph    
Max Gust Speed 21 mph    
Visibility 10 miles    
Events      
Averages and records for this station are not official NWS values.
T = Trace of Precipitation, MM = Missing Value Source: NWS Daily Summary

Daily Weather History Graph

Daily Weather History Graph

Search for Another Location

Airport or City:

Trip Planner

Search our weather history database for the weather conditions in past years. The results will help you decide how hot, cold, wet, or windy it might be!

Date:

Astronomy

Dec. 18, 2012 Rise Set
Actual Time 7:14 AM EST 4:51 PM EST
Civil Twilight 6:45 AM EST 5:20 PM EST
Nautical Twilight 6:13 AM EST 5:53 PM EST
Astronomical Twilight 5:41 AM EST 6:25 PM EST
Moon 11:01 AM EST (12/18) 11:07 PM EST (12/18)
Length of Visible Light 10h 34m
Length of Day
9h 36m
Waxing Crescent, 34% of the Moon is Illuminated
Dec 18
Waxing Crescent
Dec 20
First Quarter
Dec 28
Full
Jan 4
Last Quarter
Jan 11
New

Hourly Weather History & Observations

Time (EST) Temp. Dew Point Humidity Pressure Visibility Wind Dir Wind Speed Gust Speed Precip Events Conditions
12:16 AM 59.0 °F 53.6 °F 82% 29.62 in 10.0 mi SW 8.1 mph - N/A   Overcast
12:55 AM 59.2 °F 54.1 °F 83% 29.61 in 10.0 mi SSW 6.9 mph - N/A   Overcast
1:55 AM 58.6 °F 54.0 °F 84% 29.61 in 10.0 mi SSW 8.1 mph - N/A   Overcast
2:10 AM 59.0 °F 53.6 °F 82% 29.62 in 10.0 mi SW 8.1 mph - N/A   Mostly Cloudy
2:31 AM 59.0 °F 53.6 °F 82% 29.62 in 10.0 mi WSW 8.1 mph - N/A   Mostly Cloudy
2:33 AM 59.0 °F 53.6 °F 82% 29.62 in 10.0 mi SW 6.9 mph - N/A   Mostly Cloudy
2:35 AM 59.0 °F 53.6 °F 82% 29.62 in 10.0 mi SW 6.9 mph - N/A   Mostly Cloudy
2:47 AM 57.2 °F 53.6 °F 88% 29.62 in 10.0 mi SW 6.9 mph - N/A   Mostly Cloudy
2:55 AM 57.6 °F 53.8 °F 87% 29.63 in 10.0 mi SSW 6.9 mph - N/A   Mostly Cloudy
3:08 AM 57.2 °F 53.6 °F 88% 29.62 in 10.0 mi SSW 5.8 mph - N/A   Overcast
3:34 AM 57.2 °F 53.6 °F 88% 29.62 in 10.0 mi SW 5.8 mph - N/A   Scattered Clouds
3:55 AM 56.5 °F 53.4 °F 89% 29.61 in 10.0 mi SSW 4.6 mph - N/A   Clear
4:55 AM 55.8 °F 53.2 °F 91% 29.61 in 10.0 mi SSW 4.6 mph - N/A   Clear
5:55 AM 54.7 °F 52.7 °F 93% 29.61 in 10.0 mi SSW 4.6 mph - N/A   Clear
6:12 AM 55.4 °F 51.8 °F 88% 29.61 in 10.0 mi Variable 3.5 mph - N/A   Light Drizzle
6:55 AM 54.1 °F 52.7 °F 95% 29.63 in 10.0 mi SSW 5.8 mph - 0.00 in   Clear
7:47 AM 53.6 °F 53.6 °F 100% 29.65 in 10.0 mi SW 5.8 mph - N/A   Mostly Cloudy
7:55 AM 54.9 °F 53.4 °F 95% 29.64 in 10.0 mi SW 5.8 mph - N/A   Mostly Cloudy
8:28 AM 55.4 °F 53.6 °F 94% 29.64 in 10.0 mi SW 6.9 mph - N/A   Overcast
8:55 AM 56.5 °F 53.6 °F 90% 29.65 in 10.0 mi Variable 5.8 mph - N/A   Mostly Cloudy
9:55 AM 58.6 °F 52.3 °F 80% 29.65 in 10.0 mi West 6.9 mph - N/A   Overcast
10:55 AM 60.4 °F 50.7 °F 70% 29.65 in 10.0 mi WNW 10.4 mph - N/A   Overcast
11:55 AM 61.5 °F 48.4 °F 62% 29.63 in 10.0 mi West 10.4 mph - N/A   Scattered Clouds
12:55 PM 61.2 °F 46.6 °F 59% 29.61 in 10.0 mi WNW 11.5 mph - N/A   Mostly Cloudy
1:55 PM 60.3 °F 45.0 °F 57% 29.61 in 10.0 mi West 6.9 mph - N/A   Mostly Cloudy
2:55 PM 60.4 °F 43.3 °F 53% 29.63 in 10.0 mi WNW 11.5 mph 20.7 mph N/A   Scattered Clouds
3:55 PM 59.0 °F 43.3 °F 56% 29.64 in 10.0 mi WNW 9.2 mph - N/A   Clear
4:55 PM 55.8 °F 41.5 °F 59% 29.68 in 10.0 mi WNW 10.4 mph - N/A   Partly Cloudy
5:55 PM 55.2 °F 39.4 °F 55% 29.70 in 10.0 mi WNW 11.5 mph - N/A   Partly Cloudy
6:55 PM 53.8 °F 40.1 °F 60% 29.73 in 10.0 mi WNW 9.2 mph - N/A   Clear
7:55 PM 52.5 °F 41.0 °F 65% 29.78 in 10.0 mi WNW 9.2 mph - N/A   Clear
8:55 PM 50.9 °F 36.7 °F 58% 29.80 in 10.0 mi West 5.8 mph - N/A   Clear
9:55 PM 49.1 °F 35.8 °F 60% 29.83 in 10.0 mi WNW 9.2 mph - N/A   Clear
10:55 PM 47.7 °F 36.0 °F 64% 29.84 in 10.0 mi WNW 9.2 mph - N/A   Clear
11:55 PM 46.4 °F 33.6 °F 61% 29.84 in 10.0 mi Calm Calm - N/A   Clear